Key statistics
Satellite OBJECT G at a glance.
Uptime
929
Days in orbit
Revolutions
≈ 15.3
Per day
Orbit
SSO
Sun Synchronous Orbit
Inclination
97.4
Latest
Satellite identification and parameters
Extended collection of information and parameters for OBJECT G.
Object identification
Identified? True
Debris? False
Object name: OBJECT G
International designator: 2022-019G
Object number (NORAD): 51830
Object ID (CCSDS): 51830
Country: PEOPLES REPUBLIC OF CHINA (PRC)
Current information (Y/N): Y
RCS size: MEDIUM
Orbital parameters
Decay date: Sept. 13, 2024
Period: 93.872 minutes
Inclination: 97.4433 deg
SMA: 6842.04 km
Apoapsis: 470.957 km
Periapsis: 456.853 km
RAAN: 121.3473 deg
Eccentricy: 0.0010307
Argument of periapsis: 311.5669 deg
Mean anomaly: 48.469 deg
Mean motion: 15.33996508 rev/day
Mean motion (dot): 0.00051109 rev/day2
B* drag term: 0.0015453 1/REarth
Two-line elements (TLE)
Creation date: Feb. 12, 2024, 3:07 a.m.
Reference frame: TEME
Reference center: EARTH
Epoch: Feb. 11, 2024, 9:56 p.m. UTC
TLE line 0: 0 OBJECT G
TLE line 1: 1 51830U 22019G 24042.91389401 .00051109 00000-0 15453-2 0 9994
TLE line 2: 2 51830 97.4433 121.3473 0010307 311.5669 48.4690 15.33996508108405
Live tracking on map
Satellite OBJECT G has decayed and is no longer in orbit. No tracking available.
In-orbit conjunctions
Satellite OBJECT G has decayed and is no longer in orbit. No conjunctions available.
Associated space launch
Carried 22 satellites to sun-synchronous orbit on a share-ride mission, including the Hainan-1 satellites.
OBJECT G was lifted into orbit during the mission ‘Long March 8 (Core Only) | Hainan-1 to 4 & others’, on board a Long March 8 (Core Only) space rocket.
The launch took place on Feb. 27, 2022, 3:06 a.m. from 201.
For more information about the launch, click the button.
Long March 8 (Core Only) | Hainan-1 to 4 & others
Agency: N/A
Status: Launch Successful
Launch date: Feb. 27, 2022, 3:06 a.m. UTC
Rocket: Long March 8 (Core Only)
Launch pad: 201
Location: Wenchang Space Launch Site, People's Republic of China
...
Latest news about this satellite
China launches new variant of Long March 8 rocket
Two recent launches from China set a new record for the largest number of satellites ever deployed by a Chinese rocket, and added a new radar imaging capability to the country’s remote sensing fleet.
China launches national record 22 satellites on Long March 8 commercial rideshare
China’s second Long March 8 rocket launched late Saturday carrying a domestic record 22 satellites for a range of commercial Chinese space companies.
Newsletter sign-up
Weekly statistics, charts and insights to help you stay on top of the space industry.
